Location: Gorze? G�rny
(49.8500°N, 19.5000°E)
Time: 03:57:04
(UTC+00:00)

Cosmos 2263 - Pass Details

Date: 13 May 2021
Orbit: 830 x 866 km, 70.9° (Epoch: 23 June)

Event Time Altitude Azimuth Distance (km) Brightness Sun altitude
Exits shadow 22:16:54 40° 202° (SSW) 1,252 4.6 -21.4°
Maximum altitude 22:19:06 85° 118° (ESE) 875 4.2 -21.4°
Drops below altitude 10° 22:24:55 10° 30° (NNE) 2,520 7.4 -21.5°
Sets 22:27:23 0° 30° (NNE) 3,460 8.3 -21.5°
